Volver al catálogo

NOAA 16 DEB

ActivoSSO
NORAD 41495·DEBRIS·🇺🇸 United States

Lanzado Sep 21, 2000 desde Vandenberg Space Force Base

Loading…

Próximos Pases (próximas 24 horas)

TLE

ActualizadoSource: Space-Track

Época: Sep 13, 2026, 11:13 UTC

1 41495U 00055LT  26256.46789972  .00001782  00000-0  89638-3 0  9991
2 41495  98.6770 262.1092 0035964 353.2216   6.8468 14.17362068540248

Sigue NOAA 16 DEB en tiempo real con AllMySat

Download on the App Store